Regional Weather Roundup
Issued by NWS Charleston, SC

Current Version | Previous Version | Graphics & Text | Print | Product List | Glossary On
Versions: 1 2 3 4 5 6 7 8 9 10 11 12 13 14 15 16 17 18 19 20 21 22 23 24 25 26 27 28 29 30 31 32 33 34 35 36 37 38 39 40 41 42 43 44 45 46 47 48 49 50
000 ASUS42 KCHS 062228 RWRCHS REGIONAL WEATHER ROUNDUP NATIONAL WEATHER SERVICE CHARLESTON SC 600 PM EDT FRI MAY 06 2016 NOTE: "FAIR" INDICATES FEW OR NO CLOUDS BELOW 12,000 FEET WITH NO SIGNIFICANT WEATHER AND/OR OBSTRUCTIONS TO VISIBILITY. NOT ALL STATIONS ARE QUALITY CONTROLLED. USE DATA WITH CAUTION... ESPECIALLY DEWPOINT OBSERVATIONS. SCZ027-030-031-034>040-042>050-062300- ...SOUTHEAST SOUTH CAROLINA... CITY SKY/WX TMP DP RH WIND PRES REMARKS N CHARLESTON MOSUNNY 70 45 40 NW9 29.79S WATERFRONT PRK N/A 71 48 43 W7 29.77S MOUNT PLEASANT FAIR 72 46 40 W14G21 29.80R JOHNS ISLAND FAIR 72 48 43 NW7 29.80S PINOPOLIS N/A 72 52 49 W10 29.72S MONCKS CORNER FAIR 64 43 45 W3 29.80R SUMMERVILLE MOCLDY 68 52 56 SW5 29.82R BEAUFORT MCAS MOSUNNY 69 48 47 W3 29.82S THUNDER BEAUFORT ARPT FAIR 70 45 40 W5 29.81S HILTON HEAD IS MOSUNNY 72 46 40 NW5 29.83 WALTERBORO PTCLDY 64 54 68 SW3 29.82R ALLENDALE CLOUDY 70 45 40 VRB5 29.81S ...SOUTHERN MIDLANDS AND PEE DEE... CITY SKY/WX TMP DP RH WIND PRES REMARKS GEORGETOWN FAIR 70 46 43 NW6 29.80R KINGSTREE MOCLDY 70 45 40 W7 29.78F ORANGEBURG PTSUNNY 67 50 54 NW13G20 29.83R BARNWELL MOCLDY 70 55 60 CALM 29.83R AIKEN CLOUDY 66 41 39 NW12 29.86R MANNING LGT RAIN 66 45 45 NW8G16 29.80R COLUMBIA PTSUNNY 69 43 38 W6 29.81R SUMTER CLOUDY 63 49 58 W8 29.78S FLORENCE CLOUDY 72 44 36 N12 29.78R MYRTLE BEACH PTSUNNY 70 46 43 NW7 29.80R N MYRTLE BEACH LGT RAIN 64 51 62 NW5 29.78R $$ GAZ063-065-086>088-099>101-113>116-118-119-134>141-150-062300- ...SOUTHEAST GEORGIA... CITY SKY/WX TMP DP RH WIND PRES REMARKS SAVANNAH ARPT PTSUNNY 72 44 36 W10 29.83S HUNTER AAF PTSUNNY 72 47 41 W9 29.80S FORT STEWART PTSUNNY 74 44 33 W13 29.80F STATESBORO MOSUNNY 73 50 45 NW7 29.82S SYLVANIA MOCLDY 71 50 46 NW10G18 29.83S CLAXTON FAIR 72 50 45 W6 29.83S ...CSRA...CENTRAL AND FAR SOUTHEAST GEORGIA... CITY SKY/WX TMP DP RH WIND PRES REMARKS THOMSON SUNNY 72 47 42 NW6 29.88S AUGUSTA-BUSH PTSUNNY 70 42 36 W12 29.82R AUGUSTA-DANIEL PTSUNNY 70 42 36 VRB6 29.83S SWAINSBORO FAIR 72 41 33 NW9G18 29.85S VIDALIA MOSUNNY 70 45 40 W6 29.85R EASTMAN CLOUDY 70 43 37 N7 29.90R HAZLEHURST FAIR 72 43 35 NW6 29.86R ALMA MOSUNNY 72 45 37 NW12 29.85S WAYCROSS MOSUNNY 72 48 43 NW9 29.85R JESUP FAIR 73 48 40 NW8 29.84S BAXLEY FAIR 72 45 37 NW14 29.85S BRUNSWICK SUNNY 79 45 29 W10 29.85R SAINT SIMONS MOSUNNY 68 51 54 SE7 29.84S $$ SCZ027-028-034-036>038-045-046-048>050-GAZ119-141-062300- ...LAKE AND SUPPLEMENTAL COASTAL OBSERVATIONS... STATION/POSITION TIME TEMP WIND PRES WAVE SWELL AIR SEA DIR/SP/G HT/PER HT/PER/DIR (UTC) (F) (DEG/KT/KT) (MB) (FT/S) (FT/S/D) WINYAH BAY 2145 70 330/ 7 1008.0S LAKE MURRAY 2100 67 270/ 8/ 11 1008.8F ACE BASIN NERRS NOT AVBL FORT PULASKI 2200 70 72 1010.0F SAPELO ISLAND 2200 71 140/ 7 1010.0S $$ ANZ835-935-AMZ111-154-330-350-352-354-370-450-454-472-062300- ...C-MAN AND BUOY OBSERVATIONS... STATION/POSITION TIME TEMP WIND PRES WAVE SWELL AIR SEA DIR/SP/G HT/PER HT/PER/DIR (UTC) (F) (DEG/KT/KT) (MB) (FT/S) (FT/S/D) BUOY 41004 2150 67 73 250/ 12/ 16 1008.7F 2/ 4 BUOY 41008 NOT AVBL FOLLY BEACH CMAN 2200 71 290/ 4/ 5 1009.1S CAPERS NEARSHORE 2208 70 70 310/ 8/ 10 1008.6R FRIPP NEARSHORE 2208 69 69 290/ 10/ 12 1008.7F STATION/POSITION TIME TEMP WIND PRES WAVE SWELL AIR SEA DIR/SP/G HT/PER HT/PER/DIR (UTC) (F) (DEG/KT/KT) (MB) (FT/S) (FT/S/D) 5E ST. MARYS GA 2121 71 N/A 1/ 9 FRYING PAN BUOY 2200 65 72 260/ 12/ 17 1008.3R BUOY 41025 2150 63 75 270/ 12/ 16 1006.7R 5/ 9 5/120/ 9 CAPE LOOKOUT NC 2200 63 250/ 8/ 10 1007.0R BUOY 41002 2150 70 73 260/ 12/ 14 1008.5R 7/ 8 7/290/ 8 BUOY 41010 2120 71 79 300/ 14/ 19 1010.0S ST AUGUSTINE FL 2200 65 72 40/ 8/ 9 1011.6F $$

USA.gov is the U.S. government's official web portal to all federal, state and local government web resources and services.